This is the latest recevied weather packets stored in our database for station/object N9ALD. If no packets are shown the sender has not sent any weather packets the latest 10 day(s).
| Time | Temp. | Humidity | Pressure | Rain* | Wind** | Luminosity | Snow |
|---|---|---|---|---|---|---|---|
| 1777396347 | 16.11° C | 74% | 1012.1 hPa | 0 mm | - | 359 W/m² | - |
| 1777396045 | 16.67° C | 72% | 1012.1 hPa | 0 mm | - | 326 W/m² | - |
| 1777395739 | 16.67° C | 71% | 1012.3 hPa | 0 mm | - | 323 W/m² | - |
| 1777395435 | 16.67° C | 73% | 1012.2 hPa | 0 mm | - | 407 W/m² | - |
| 1777395133 | 16.67° C | 73% | 1012.3 hPa | 0 mm | - | 766 W/m² | - |
| 1777394830 | 16.67° C | 73% | 1012.1 hPa | 0 mm | - | 814 W/m² | - |
| 1777394526 | 16.67° C | 75% | 1012.2 hPa | 0 mm | - | 810 W/m² | - |
| 1777394223 | 16.67° C | 72% | 1012.2 hPa | 0 mm | - | 772 W/m² | - |
| 1777393918 | 16.11° C | 74% | 1012.4 hPa | 0 mm | - | 853 W/m² | - |
| 1777393618 | 16.11° C | 76% | 1012.2 hPa | 0 mm | - | 548 W/m² | - |
| 1777393313 | 16.11° C | 74% | 1012.2 hPa | 0 mm | - | 706 W/m² | - |
| 1777393010 | 16.11° C | 75% | 1012.2 hPa | 0 mm | - | 403 W/m² | - |
| 1777392706 | 16.11° C | 77% | 1012.1 hPa | 0 mm | - | 742 W/m² | - |
| 1777392402 | 16.11° C | 77% | 1012.3 hPa | 0 mm | - | 333 W/m² | - |
| 1777392097 | 16.11° C | 76% | 1012.1 hPa | 0 mm | - | 881 W/m² | - |
| 1777391792 | 15.56° C | 76% | 1012.1 hPa | 0 mm | - | 449 W/m² | - |
| 1777391488 | 15.56° C | 78% | 1012.1 hPa | 0 mm | - | 337 W/m² | - |
| 1777391185 | 15.56° C | 77% | 1012.2 hPa | 0 mm | - | 350 W/m² | - |
| 1777390881 | 15° C | 79% | 1012.1 hPa | 0 mm | - | 377 W/m² | - |
| 1777390579 | 15.56° C | 78% | 1012.1 hPa | 0 mm | - | 213 W/m² | - |
| 1777390275 | 15.56° C | 79% | 1012 hPa | 0 mm | - | 879 W/m² | - |
| 1777389971 | 15.56° C | 79% | 1012 hPa | 0 mm | - | 854 W/m² | - |
| 1777389668 | 15.56° C | 79% | 1011.9 hPa | 0 mm | - | 246 W/m² | - |
| 1777389364 | 15° C | 81% | 1011.7 hPa | 0 mm | - | 362 W/m² | - |
| 1777389062 | 15° C | 80% | 1011.9 hPa | 0 mm | - | 325 W/m² | - |
* Rain latest hour (hover to see other rain measurements)
** Current wind speed in m/s (hover to see current wind gust speed)